LBT7693 EPKT-DTTJ

Flight info

Callsign LBT7693
Flight time N/A
Altitude 34000
Route TUSIN DCT UPLAV DCT LEDVA DCT WGM DCT NIGSI DCT LAPNA DCT VALLU DCT DARZA DCT ULPIN DCT EDUGI DCT LISKO DCT GUDPO DCT EVULI DCT INSOX DCT UNIXO DCT ERPEM DCT PININ DCT TUNEX UM738 SFX G727 ORSIN DCT BISKO
Aircraft A320/M-SDE3FGHIRWY/LB1

Departure

Time N/A
Airport Katowice Wojciech Korfanty International Airport (EPKT)

Arrival

Time 2026-04-23 15:20
Airport Djerba Zarzis International Airport (DTTJ)
Time Latitude Longitude Altitude Speed Heading
2026-04-23 14:30 39.36202 11.88095 35154 ft 478 kts 211°
2026-04-23 14:30 39.30074 11.84702 35163 ft 478 kts 211°
2026-04-23 14:31 39.23965 11.81332 35165 ft 478 kts 211°
2026-04-23 14:31 39.17847 11.77974 35141 ft 477 kts 211°
2026-04-23 14:32 39.11771 11.74637 35170 ft 476 kts 211°
2026-04-23 14:32 39.05677 11.71285 35168 ft 475 kts 211°
2026-04-23 14:33 38.99584 11.67936 35159 ft 474 kts 211°
2026-04-23 14:33 38.93431 11.64858 35127 ft 483 kts 203°
2026-04-23 14:34 38.86802 11.63090 35140 ft 487 kts 199°
2026-04-23 14:34 38.80163 11.61402 35147 ft 487 kts 199°
2026-04-23 14:35 38.73515 11.59724 35131 ft 487 kts 199°
2026-04-23 14:35 38.66850 11.58033 35144 ft 486 kts 199°
2026-04-23 14:36 38.60235 11.56346 35151 ft 485 kts 199°
2026-04-23 14:36 38.53642 11.54669 35122 ft 485 kts 199°
2026-04-23 14:37 38.47033 11.52992 35139 ft 484 kts 199°
2026-04-23 14:37 38.40417 11.51333 35143 ft 484 kts 199°
2026-04-23 14:38 38.33815 11.49673 35140 ft 483 kts 199°
2026-04-23 14:38 38.27206 11.48003 35116 ft 483 kts 199°
2026-04-23 14:39 38.20614 11.46353 35129 ft 482 kts 199°
2026-04-23 14:39 38.14070 11.44717 35137 ft 482 kts 199°
2026-04-23 14:40 38.07464 11.43053 35120 ft 482 kts 199°
2026-04-23 14:40 38.00882 11.41410 35135 ft 481 kts 199°
2026-04-23 14:41 37.94356 11.39796 35137 ft 481 kts 199°
2026-04-23 14:41 37.88881 11.38354 35129 ft 479 kts 200°
2026-04-23 14:42 37.82393 11.36380 35127 ft 477 kts 202°
2026-04-23 14:42 37.75958 11.34375 35122 ft 478 kts 201°
2026-04-23 14:43 37.69511 11.32429 35122 ft 478 kts 201°
2026-04-23 14:43 37.63011 11.30501 35093 ft 478 kts 200°
2026-04-23 14:44 37.56532 11.28592 35100 ft 477 kts 200°
2026-04-23 14:44 37.50081 11.26695 35112 ft 477 kts 200°
2026-04-23 14:45 37.43624 11.24784 35113 ft 477 kts 200°
2026-04-23 14:45 37.37155 11.22865 35094 ft 476 kts 200°
2026-04-23 14:46 37.30717 11.20966 35118 ft 475 kts 200°
2026-04-23 14:46 37.24323 11.19092 35123 ft 475 kts 200°
2026-04-23 14:47 37.17890 11.17199 35108 ft 474 kts 200°
2026-04-23 14:47 37.11482 11.15311 35120 ft 474 kts 200°
2026-04-23 14:48 37.05056 11.13425 35122 ft 473 kts 200°
2026-04-23 14:48 36.98650 11.11554 35118 ft 473 kts 200°
2026-04-23 14:49 36.92246 11.09687 35093 ft 473 kts 200°
2026-04-23 14:49 36.85837 11.07808 35100 ft 472 kts 200°
2026-04-23 14:50 36.79489 11.05855 35103 ft 471 kts 201°
2026-04-23 14:50 36.73130 11.03871 35104 ft 471 kts 201°
2026-04-23 14:51 36.66759 11.01917 35093 ft 472 kts 200°
2026-04-23 14:51 36.60377 11.00011 35095 ft 472 kts 200°
2026-04-23 14:52 36.53989 10.98114 35093 ft 472 kts 200°
2026-04-23 14:52 36.47600 10.96211 35077 ft 471 kts 200°
2026-04-23 14:53 36.41224 10.94294 35090 ft 471 kts 200°
2026-04-23 14:53 36.34855 10.92386 35097 ft 471 kts 200°
2026-04-23 14:54 36.28481 10.90488 35097 ft 471 kts 200°
2026-04-23 14:54 36.22114 10.88593 35081 ft 470 kts 199°
2026-04-23 14:55 36.15760 10.86717 35096 ft 470 kts 199°
2026-04-23 14:55 36.09387 10.84828 35096 ft 470 kts 200°
2026-04-23 14:56 36.03028 10.82942 35097 ft 469 kts 200°
2026-04-23 14:56 35.96685 10.81066 35078 ft 469 kts 199°
2026-04-23 14:57 35.90369 10.79202 35089 ft 469 kts 199°
2026-04-23 14:57 35.84026 10.77331 35089 ft 469 kts 199°
2026-04-23 14:58 35.77675 10.75467 35088 ft 469 kts 199°
2026-04-23 14:58 35.74443 10.74781 34894 ft 475 kts 190°
2026-04-23 14:58 35.71132 10.74559 34656 ft 476 kts 187°
2026-04-23 14:59 35.67830 10.74375 34418 ft 476 kts 187°
2026-04-23 14:59 35.64513 10.74190 34177 ft 476 kts 187°
2026-04-23 14:59 35.61218 10.74006 33927 ft 476 kts 187°
2026-04-23 14:59 35.57903 10.73822 33664 ft 477 kts 187°
2026-04-23 15:00 35.54585 10.73633 33384 ft 477 kts 187°
2026-04-23 15:00 35.51256 10.73443 33114 ft 477 kts 188°
2026-04-23 15:00 35.47945 10.73254 32854 ft 478 kts 187°
2026-04-23 15:00 35.44610 10.73063 32587 ft 478 kts 188°
2026-04-23 15:01 35.41290 10.72870 32328 ft 478 kts 187°
2026-04-23 15:01 35.37964 10.72677 32072 ft 478 kts 187°
2026-04-23 15:01 35.34642 10.72486 31818 ft 479 kts 187°
2026-04-23 15:01 35.31323 10.72296 31563 ft 479 kts 187°
2026-04-23 15:02 35.27982 10.72105 31308 ft 479 kts 187°
2026-04-23 15:02 35.24650 10.71914 31046 ft 480 kts 187°
2026-04-23 15:02 35.21313 10.71722 30799 ft 480 kts 187°
2026-04-23 15:02 35.17978 10.71533 30364 ft 480 kts 187°
2026-04-23 15:03 35.14715 10.71437 30006 ft 469 kts 185°
2026-04-23 15:03 35.11403 10.71443 29186 ft 467 kts 183°
2026-04-23 15:03 35.08174 10.71523 28507 ft 463 kts 182°
2026-04-23 15:03 35.04944 10.71632 27785 ft 460 kts 182°
2026-04-23 15:04 35.01805 10.71732 27085 ft 457 kts 182°
2026-04-23 15:04 34.98626 10.71813 26402 ft 453 kts 182°
2026-04-23 15:04 34.95485 10.71870 26112 ft 451 kts 182°
2026-04-23 15:04 34.92368 10.71911 25046 ft 448 kts 182°
2026-04-23 15:05 34.89252 10.71945 24373 ft 445 kts 182°
2026-04-23 15:05 34.86173 10.71977 23714 ft 443 kts 182°
2026-04-23 15:05 34.83087 10.72015 22992 ft 440 kts 182°
2026-04-23 15:05 34.80038 10.72059 22388 ft 435 kts 182°
2026-04-23 15:06 34.77034 10.72105 21797 ft 430 kts 182°
2026-04-23 15:06 34.74066 10.72151 21250 ft 425 kts 182°
2026-04-23 15:06 34.71113 10.72193 20715 ft 421 kts 182°
2026-04-23 15:06 34.68191 10.72230 20197 ft 418 kts 182°
2026-04-23 15:07 34.65290 10.72270 19681 ft 415 kts 182°
2026-04-23 15:07 34.62430 10.72315 19169 ft 412 kts 182°
2026-04-23 15:07 34.59572 10.72361 18658 ft 410 kts 182°
2026-04-23 15:07 34.56718 10.72407 18091 ft 408 kts 182°
2026-04-23 15:08 34.53892 10.72449 17533 ft 405 kts 182°
2026-04-23 15:08 34.51085 10.72487 16993 ft 402 kts 182°
2026-04-23 15:08 34.48316 10.72522 16447 ft 399 kts 182°
2026-04-23 15:09 34.42782 10.72593 15308 ft 397 kts 182°
2026-04-23 15:09 34.40015 10.72630 14726 ft 396 kts 181°
2026-04-23 15:09 34.37268 10.72668 14165 ft 395 kts 181°
2026-04-23 15:09 34.34519 10.72706 13558 ft 394 kts 181°
2026-04-23 15:10 34.32701 10.72732 13158 ft 393 kts 181°
2026-04-23 15:10 34.29065 10.72793 12390 ft 389 kts 180°
2026-04-23 15:10 34.26373 10.72951 11820 ft 386 kts 177°
2026-04-23 15:10 34.23699 10.73216 11226 ft 383 kts 176°
2026-04-23 15:11 34.21059 10.73531 10677 ft 380 kts 175°
2026-04-23 15:11 34.18486 10.73852 10512 ft 365 kts 175°
2026-04-23 15:11 34.16004 10.74158 10389 ft 350 kts 175°
2026-04-23 15:11 34.13626 10.74437 10265 ft 337 kts 175°
2026-04-23 15:12 34.11331 10.74694 10145 ft 325 kts 176°
2026-04-23 15:12 34.09105 10.74705 9956 ft 314 kts 193°
2026-04-23 15:12 34.07112 10.73753 9390 ft 312 kts 219°
2026-04-23 15:12 34.05703 10.71897 9089 ft 298 kts 243°
2026-04-23 15:13 34.04899 10.69619 8710 ft 292 kts 253°
2026-04-23 15:13 34.04093 10.67368 8292 ft 292 kts 247°
2026-04-23 15:13 34.03106 10.65235 7876 ft 293 kts 240°
2026-04-23 15:13 34.01922 10.63238 7325 ft 291 kts 234°
2026-04-23 15:14 34.00563 10.61429 6616 ft 292 kts 226°
2026-04-23 15:14 33.99037 10.59814 5848 ft 293 kts 220°
2026-04-23 15:14 33.97381 10.58429 5088 ft 294 kts 212°
2026-04-23 15:14 33.95579 10.57259 4326 ft 293 kts 204°
2026-04-23 15:15 33.93725 10.56360 3931 ft 277 kts 198°
2026-04-23 15:15 33.91961 10.55743 3874 ft 253 kts 193°
2026-04-23 15:15 33.90295 10.55383 3802 ft 237 kts 179°
2026-04-23 15:15 33.88772 10.55906 3752 ft 227 kts 143°
2026-04-23 15:16 33.87667 10.57214 3660 ft 221 kts 117°
2026-04-23 15:16 33.87120 10.58901 3574 ft 216 kts 92°
2026-04-23 15:16 33.87097 10.60689 3441 ft 212 kts 83°
2026-04-23 15:16 33.87150 10.62454 3123 ft 208 kts 84°
2026-04-23 15:17 33.87197 10.64147 2674 ft 197 kts 84°
2026-04-23 15:17 33.87238 10.65742 2233 ft 184 kts 83°
2026-04-23 15:17 33.87276 10.67231 1720 ft 175 kts 83°
2026-04-23 15:17 33.87313 10.68664 1285 ft 166 kts 83°
2026-04-23 15:18 33.87345 10.69966 1044 ft 146 kts 83°
2026-04-23 15:18 33.87375 10.71125 827 ft 134 kts 82°
2026-04-23 15:18 33.87404 10.72240 665 ft 130 kts 82°
2026-04-23 15:18 33.87427 10.73313 480 ft 129 kts 83°
2026-04-23 15:19 33.87456 10.74382 343 ft 127 kts 83°
2026-04-23 15:19 33.87490 10.75447 162 ft 129 kts 82°
2026-04-23 15:19 33.87509 10.76514 30 ft 119 kts 81°
2026-04-23 15:19 33.87541 10.77343 19 ft 81 kts 89°
2026-04-23 15:20 33.87546 10.77702 24 ft 47 kts 89°
2026-04-23 15:20 33.87555 10.78114 23 ft 33 kts 89°
2026-04-23 15:20 33.87559 10.78350 18 ft 15 kts 88°
2026-04-23 15:20 33.87562 10.78422 19 ft 9 kts 88°
2026-04-23 15:21 33.87565 10.78504 19 ft 10 kts 88°
2026-04-23 15:21 33.87544 10.78580 20 ft 10 kts 134°
2026-04-23 15:21 33.87489 10.78599 21 ft 8 kts 178°
2026-04-23 15:21 33.87440 10.78595 21 ft 6 kts 195°
2026-04-23 15:22 33.87412 10.78567 22 ft 4 kts 234°
2026-04-23 15:22 33.87403 10.78541 22 ft 5 kts 251°
2026-04-23 15:22 33.87398 10.78482 25 ft 6 kts 268°
2026-04-23 15:22 33.87397 10.78422 27 ft 13 kts 268°
2026-04-23 15:23 33.87394 10.78287 27 ft 16 kts 269°
2026-04-23 15:23 33.87397 10.78158 26 ft 15 kts 271°
2026-04-23 15:23 33.87395 10.78037 26 ft 14 kts 268°
2026-04-23 15:23 33.87393 10.77924 27 ft 13 kts 269°
2026-04-23 15:24 33.87391 10.77819 27 ft 12 kts 268°
2026-04-23 15:24 33.87388 10.77721 26 ft 11 kts 268°
2026-04-23 15:24 33.87377 10.77675 26 ft 3 kts 210°
2026-04-23 15:24 33.87360 10.77673 27 ft 2 kts 177°
2026-04-23 15:25 33.87351 10.77674 27 ft 1 kts 175°
2026-04-23 15:25 33.87342 10.77675 27 ft 1 kts 178°
2026-04-23 15:25 33.87333 10.77675 27 ft 3 kts 179°
2026-04-23 15:25 33.87327 10.77675 27 ft 0 kts 179°